,,Stat5,,Stat1,,Stat2,,Stat3,,Stat4,,Wind1,,Wind1,
time,status,PA1M_AVG,status,PR1M_SUM,status,RH1M_AVG,status,SR1M_AVG,status,TA1M_AVG,status,W1dAve1m,status,W1sAve1m,
2002-08-18, 00:28:00,INVALID,0,VALID,0,VALID,98.9532,VALID,0.020377,VALID,19.5015,VALID,33,VALID,0.112877,
2002-08-18, 00:29:00,VALID,918.416,VALID,0,VALID,98.9575,VALID,0.0679233,VALID,19.5131,VALID,33,VALID,0.00821314,
2002-08-18, 00:30:00,VALID,918.408,VALID,0,VALID,98.9308,VALID,0.0339617,VALID,19.5258,VALID,31,VALID,0.49721,
2002-08-18, 00:32:00,INVALID,0,VALID,0,VALID,98.9532,VALID,-0.040754,VALID,19.5573,VALID,34,VALID,0.0549316,
2002-08-18, 00:33:00,VALID,918.41,VALID,0,VALID,98.941,VALID,-0.0509425,VALID,19.5628,VALID,100,VALID,0.226172,
2002-08-18, 00:34:00,VALID,918.41,VALID,0,VALID,98.9207,VALID,-0.0339617,VALID,19.5534,VALID,143,VALID,0.010617,
2002-08-18, 00:36:00,INVALID,0,VALID,0,VALID,98.5839,VALID,-0.040754,VALID,19.3399,VALID,20,VALID,0.127197,
2002-08-18, 00:37:00,VALID,918.404,VALID,0,VALID,98.5532,VALID,-0.0509425,VALID,19.3014,VALID,20,VALID,0.131641,
2002-08-18, 00:38:00,VALID,918.388,VALID,0,VALID,98.6117,VALID,-0.0169808,VALID,19.2751,VALID,20,VALID,0.302885,
2002-08-18, 01:10:00,INVALID,0,VALID,0,VALID,98.6908,VALID,-0.081508,VALID,19.0565,VALID,354,VALID,0.0651855,
2002-08-18, 01:11:00,VALID,917.93,VALID,0,VALID,98.7388,VALID,-0.0679233,VALID,19.1017,VALID,354,VALID,0,
2002-08-18, 01:12:00,VALID,917.894,VALID,0,VALID,98.6155,VALID,-0.0849042,VALID,19.1049,VALID,354,VALID,0.270198,
2002-08-18, 01:14:00,INVALID,0,VALID,0,VALID,98.4573,VALID,-0.101885,VALID,19.0507,VALID,356,VALID,0.00732422,
2002-08-18, 01:15:00,VALID,917.833,VALID,0,VALID,98.604,VALID,-0.0849042,VALID,19.1156,VALID,355,VALID,0,
2002-08-18, 01:16:00,VALID,917.835,VALID,0,VALID,98.6244,VALID,-0.101885,VALID,19.1442,VALID,356,VALID,0,
2002-08-18, 01:18:00,INVALID,0,VALID,0,VALID,98.529,VALID,-0.061131,VALID,19.158,VALID,356,VALID,0.0109863,
2002-08-18, 01:19:00,VALID,917.799,VALID,0,VALID,98.59,VALID,-0.0509425,VALID,19.1921,VALID,341,VALID,0.266016,
2002-08-18, 01:20:00,VALID,917.79,VALID,0,VALID,98.5392,VALID,-0.0849042,VALID,19.2117,VALID,355,VALID,0.0584936,
2002-08-18, 01:22:00,INVALID,0,VALID,0,VALID,98.4649,VALID,-0.020377,VALID,19.2087,VALID,355,VALID,0,
2002-08-18, 01:23:00,VALID,917.752,VALID,0,VALID,98.5163,VALID,0.0169808,VALID,19.2304,VALID,355,VALID,0,
2002-08-18, 01:24:00,VALID,917.738,VALID,0,VALID,98.5315,VALID,0,VALID,19.2726,VALID,283,VALID,0.320913,
2002-08-18, 01:26:00,INVALID,0,VALID,0,VALID,98.5412,VALID,-0.040754,VALID,19.294,VALID,275,VALID,0,
2002-08-18, 01:27:00,VALID,917.651,VALID,0,VALID,98.5557,VALID,0,VALID,19.3012,VALID,258,VALID,0.20625,
2002-08-18, 01:28:00,VALID,917.594,VALID,0,VALID,98.6078,VALID,-0.0169808,VALID,19.3305,VALID,286,VALID,0.223958,
2002-08-18, 01:30:00,INVALID,0,VALID,0,VALID,98.3016,VALID,-0.020377,VALID,19.2239,VALID,7,VALID,0,
2002-08-18, 01:31:00,VALID,917.522,VALID,0,VALID,98.3332,VALID,-0.0339617,VALID,19.2115,VALID,7,VALID,0,
2002-08-18, 01:32:00,VALID,917.509,VALID,0,VALID,98.3726,VALID,-0.0169808,VALID,19.2175,VALID,7,VALID,0,
2002-08-18, 02:04:00,INVALID,0,VALID,0,VALID,98.468,VALID,-0.020377,VALID,18.8076,VALID,3,VALID,0,
2002-08-18, 02:05:00,VALID,917.342,VALID,0,VALID,98.5722,VALID,-0.0169808,VALID,18.821,VALID,3,VALID,0,
2002-08-18, 02:06:00,VALID,917.326,VALID,0,VALID,98.5773,VALID,-0.0849042,VALID,18.8173,VALID,3,VALID,0,
2002-08-18, 02:38:00,INVALID,0,VALID,0,VALID,98.6465,VALID,-0.040754,VALID,19.2696,VALID,335,VALID,0.154785,
2002-08-18, 02:39:00,VALID,917.105,VALID,0,VALID,98.6511,VALID,-0.0679233,VALID,19.2691,VALID,31,VALID,0.362695,
2002-08-18, 02:40:00,VALID,917.092,VALID,0,VALID,98.6625,VALID,-0.0509425,VALID,19.289,VALID,30,VALID,0.359566,
2002-08-18, 02:42:00,INVALID,0,VALID,0,VALID,98.6236,VALID,-0.061131,VALID,19.3101,VALID,23,VALID,0.079834,
2002-08-18, 02:43:00,VALID,917.063,VALID,0,VALID,98.6142,VALID,-0.0339617,VALID,19.3049,VALID,13,VALID,0.264648,
2002-08-18, 02:44:00,VALID,917.043,VALID,0,VALID,98.5888,VALID,-0.0339617,VALID,19.3116,VALID,13,VALID,0.111579,
2002-08-18, 03:16:00,INVALID,0,VALID,0,VALID,97.6882,VALID,-0.061131,VALID,19.3432,VALID,15,VALID,0.583252,
2002-08-18, 03:17:00,VALID,916.93,VALID,0,VALID,97.7266,VALID,0,VALID,19.3559,VALID,4,VALID,0.793164,
2002-08-18, 03:18:00,VALID,916.9,VALID,0,VALID,97.5728,VALID,0.0169808,VALID,19.3464,VALID,11,VALID,1.10938,
2002-08-18, 03:20:00,INVALID,0,VALID,0,VALID,97.4639,VALID,0.040754,VALID,19.2964,VALID,17,VALID,0.552979,
2002-08-18, 03:21:00,VALID,916.894,VALID,0,VALID,97.4075,VALID,0.0339617,VALID,19.2905,VALID,3,VALID,0.394141,
2002-08-18, 03:22:00,VALID,916.894,VALID,0,VALID,97.382,VALID,0.0339617,VALID,19.2806,VALID,15,VALID,0.366386,
2002-08-18, 03:24:00,INVALID,0,VALID,0,VALID,97.5372,VALID,0,VALID,19.3119,VALID,25,VALID,0.731934,
2002-08-18, 03:25:00,VALID,916.892,VALID,0,VALID,97.5639,VALID,0,VALID,19.3263,VALID,21,VALID,1.11719,
2002-08-18, 03:26:00,VALID,916.882,VALID,0,VALID,97.527,VALID,0,VALID,19.3365,VALID,22,VALID,0.872196,
2002-08-18, 03:58:00,INVALID,0,VALID,0,VALID,97.5005,VALID,-0.020377,VALID,19.3206,VALID,4,VALID,0.904593,
2002-08-18, 03:59:00,VALID,916.879,VALID,0,VALID,97.4418,VALID,0,VALID,19.3106,VALID,15,VALID,1.1472,
2002-08-18, 04:00:00,VALID,916.88,VALID,0,VALID,97.452,VALID,0,VALID,19.3106,VALID,5,VALID,1.016,
2002-08-18, 04:32:00,INVALID,0,VALID,0,VALID,97.9064,VALID,0,VALID,19.1104,VALID,3,VALID,0.265869,
2002-08-18, 04:33:00,VALID,916.987,VALID,0,VALID,97.9034,VALID,0,VALID,19.1074,VALID,3,VALID,0.38125,
2002-08-18, 04:34:00,VALID,916.987,VALID,0,VALID,97.8919,VALID,0,VALID,19.1171,VALID,3,VALID,0.336128,
2002-08-18, 04:36:00,INVALID,0,VALID,0,VALID,97.8027,VALID,-0.020377,VALID,19.0996,VALID,3,VALID,0.26709,
2002-08-18, 04:37:00,VALID,916.969,VALID,0,VALID,97.8017,VALID,0,VALID,19.091,VALID,351,VALID,0.396094,
2002-08-18, 04:38:00,VALID,916.977,VALID,0,VALID,97.7762,VALID,0,VALID,19.088,VALID,350,VALID,0.0108173,
2002-08-18, 04:40:00,INVALID,0,VALID,0,VALID,97.6913,VALID,-0.020377,VALID,19.0573,VALID,350,VALID,0,
2002-08-18, 04:41:00,VALID,917.015,VALID,0,VALID,97.6986,VALID,-0.0169808,VALID,19.0491,VALID,350,VALID,0,
2002-08-18, 04:42:00,VALID,917.032,VALID,0,VALID,97.6885,VALID,0,VALID,19.0428,VALID,350,VALID,0,
2002-08-18, 05:14:00,INVALID,0,VALID,0,VALID,98.085,VALID,-0.101885,VALID,18.1502,VALID,37,VALID,0,
2002-08-18, 05:15:00,VALID,917.108,VALID,0,VALID,97.9835,VALID,-0.101885,VALID,18.141,VALID,37,VALID,0,
2002-08-18, 05:16:00,VALID,917.1,VALID,0,VALID,97.9415,VALID,-0.101885,VALID,18.1117,VALID,37,VALID,0,
2002-08-18, 05:48:00,INVALID,0,VALID,0,VALID,98.8418,VALID,0.020377,VALID,17.5329,VALID,128,VALID,0.631866,
2002-08-18, 05:49:00,VALID,917.245,VALID,0,VALID,98.9245,VALID,0.0339617,VALID,17.5878,VALID,117,VALID,0.485197,
2002-08-18, 05:50:00,VALID,917.249,VALID,0,VALID,98.7439,VALID,0.0509425,VALID,17.5908,VALID,99,VALID,0.359003,
2002-08-18, 06:22:00,INVALID,0,VALID,0,VALID,99.208,VALID,5.03312,VALID,17.63,VALID,101,VALID,0.498291,
2002-08-18, 06:23:00,VALID,917.333,VALID,0,VALID,99.0262,VALID,6.02819,VALID,17.5366,VALID,92,VALID,0.558594,
2002-08-18, 06:24:00,VALID,917.339,VALID,0,VALID,98.9855,VALID,7.23383,VALID,17.3754,VALID,81,VALID,0.754954,
2002-08-18, 06:56:00,INVALID,0,VALID,0,VALID,99.5346,VALID,82.3638,VALID,18.3986,VALID,143,VALID,0.184082,
2002-08-18, 06:57:00,VALID,917.57,VALID,0,VALID,99.5234,VALID,80.6589,VALID,18.4503,VALID,152,VALID,0.273047,
2002-08-18, 06:58:00,VALID,917.557,VALID,0,VALID,99.5221,VALID,75.7854,VALID,18.4828,VALID,165,VALID,0.307165,
2002-08-18, 06:59:00,VALID,917.562,VALID,0,VALID,99.5132,VALID,75.6326,VALID,18.46,VALID,166,VALID,0.341488,
2002-08-18, 07:00:01,VALID,917.582,VALID,0,VALID,99.4916,VALID,74.1553,VALID,18.4374,VALID,162,VALID,0.327914,
2002-08-18, 07:01:00,VALID,917.59,VALID,0,VALID,99.4878,VALID,73.4421,VALID,18.3887,VALID,162,VALID,0.328325,
2002-08-18, 07:02:00,VALID,917.614,VALID,0,VALID,99.4713,VALID,74.7157,VALID,18.3562,VALID,162,VALID,0.347556,
2002-08-18, 07:03:00,VALID,917.62,VALID,0,VALID,99.4522,VALID,78.5873,VALID,18.3465,VALID,127,VALID,0.361523,
2002-08-18, 07:04:00,VALID,917.609,VALID,0,VALID,99.4357,VALID,85.1249,VALID,18.3467,VALID,144,VALID,0.597451,
2002-08-18, 07:05:00,VALID,917.617,VALID,0,VALID,99.4128,VALID,86.9758,VALID,18.3433,VALID,146,VALID,0.625217,
2002-08-18, 07:06:00,VALID,917.613,VALID,0,VALID,99.4001,VALID,89.3362,VALID,18.3497,VALID,146,VALID,0.55599,
2002-08-18, 07:07:00,VALID,917.606,VALID,0,VALID,99.3886,VALID,91.5267,VALID,18.3753,VALID,135,VALID,0.399916,
2002-08-18, 07:08:00,VALID,917.609,VALID,0,VALID,99.3823,VALID,94.9908,VALID,18.3979,VALID,127,VALID,0.514017,
2002-08-18, 07:09:00,VALID,917.589,VALID,0,VALID,99.3759,VALID,93.921,VALID,18.4138,VALID,124,VALID,0.528646,
2002-08-18, 07:10:00,VALID,917.596,VALID,0,VALID,99.3683,VALID,96.0266,VALID,18.4498,VALID,131,VALID,0.367188,
2002-08-18, 07:11:00,VALID,917.606,VALID,0,VALID,99.3543,VALID,91.6965,VALID,18.4865,VALID,131,VALID,0.469984,
2002-08-18, 07:12:00,VALID,917.637,VALID,0,VALID,99.3543,VALID,92.2059,VALID,18.5057,VALID,112,VALID,0.210115,
2002-08-18, 07:13:00,VALID,917.663,VALID,0,VALID,99.339,VALID,94.2946,VALID,18.5317,VALID,123,VALID,0.322266,
2002-08-18, 07:14:00,VALID,917.698,VALID,0,VALID,99.3327,VALID,90.1003,VALID,18.5439,VALID,111,VALID,0.252262,
2002-08-18, 07:15:00,VALID,917.725,VALID,0,VALID,99.3161,VALID,90.9324,VALID,18.5767,VALID,106,VALID,0.333265,
2002-08-18, 07:16:00,VALID,917.717,VALID,0,VALID,99.278,VALID,89.4041,VALID,18.5735,VALID,98,VALID,0.705236,
2002-08-18, 07:17:00,VALID,917.71,VALID,0,VALID,99.2373,VALID,88.9116,VALID,18.5569,VALID,109,VALID,0.667969,
2002-08-18, 07:18:00,VALID,917.704,VALID,0,VALID,99.2195,VALID,97.8775,VALID,18.5735,VALID,126,VALID,0.788833,
2002-08-18, 07:19:00,VALID,917.723,VALID,0,VALID,99.2195,VALID,103.957,VALID,18.5891,VALID,119,VALID,0.6125,
2002-08-18, 07:20:00,VALID,917.729,VALID,0,VALID,99.2386,VALID,106.572,VALID,18.6244,VALID,116,VALID,0.39984,
2002-08-18, 07:21:00,VALID,917.756,VALID,0,VALID,99.2564,VALID,104.568,VALID,18.6763,VALID,136,VALID,0.455659,
2002-08-18, 07:22:00,VALID,917.768,VALID,0,VALID,99.25,VALID,106.045,VALID,18.7123,VALID,144,VALID,0.879729,
2002-08-18, 07:23:00,VALID,917.787,VALID,0,VALID,99.2309,VALID,104.942,VALID,18.7151,VALID,137,VALID,0.934642,
2002-08-18, 07:24:00,VALID,917.804,VALID,0,VALID,99.1839,VALID,106.843,VALID,18.6989,VALID,134,VALID,0.733141,
2002-08-18, 07:25:00,VALID,917.834,VALID,0,VALID,99.1775,VALID,106.691,VALID,18.7019,VALID,146,VALID,0.617599,
2002-08-18, 07:26:00,VALID,917.846,VALID,0,VALID,99.1546,VALID,110.019,VALID,18.707,VALID,128,VALID,0.596354,
2002-08-18, 07:27:00,VALID,917.865,VALID,0,VALID,99.1101,VALID,114.841,VALID,18.704,VALID,114,VALID,1.01182,
2002-08-18, 07:28:00,VALID,917.883,VALID,0,VALID,99.0822,VALID,120.683,VALID,18.6941,VALID,123,VALID,1.10089,
2002-08-18, 07:29:00,VALID,917.9,VALID,0,VALID,99.0847,VALID,122.737,VALID,18.6908,VALID,139,VALID,0.999383,
2002-08-18, 07:30:00,VALID,917.898,VALID,0,VALID,99.0961,VALID,127.169,VALID,18.7137,VALID,146,VALID,0.861064,
2002-08-18, 07:31:00,VALID,917.92,VALID,0,VALID,99.0377,VALID,133.147,VALID,18.7038,VALID,144,VALID,1.40525,
2002-08-18, 07:32:00,VALID,917.927,VALID,0,VALID,98.9588,VALID,141.875,VALID,18.6745,VALID,137,VALID,1.25992,
2002-08-18, 07:33:00,VALID,917.938,VALID,0,VALID,99.0084,VALID,153.354,VALID,18.6514,VALID,141,VALID,0.938477,
2002-08-18, 07:34:00,VALID,917.94,VALID,0,VALID,98.9334,VALID,172.406,VALID,18.6546,VALID,137,VALID,1.31127,
2002-08-18, 07:35:00,VALID,917.959,VALID,0,VALID,98.9779,VALID,190.763,VALID,18.6553,VALID,138,VALID,1.20768,
2002-08-18, 07:36:00,VALID,917.978,VALID,0,VALID,99.0809,VALID,175.837,VALID,18.6869,VALID,143,VALID,1.29188,
2002-08-18, 07:37:00,VALID,918.005,VALID,0,VALID,98.9893,VALID,183.359,VALID,18.7102,VALID,140,VALID,1.48643,
2002-08-18, 07:38:00,VALID,918.024,VALID,0,VALID,98.9461,VALID,191.238,VALID,18.6904,VALID,141,VALID,1.31771,
2002-08-18, 07:39:00,VALID,918.045,VALID,0,VALID,98.9931,VALID,191.595,VALID,18.7162,VALID,146,VALID,1.48075,
2002-08-18, 07:40:00,VALID,918.054,VALID,0,VALID,98.9741,VALID,211.955,VALID,18.7289,VALID,144,VALID,1.42758,
2002-08-18, 07:41:00,VALID,918.076,VALID,0,VALID,98.9003,VALID,196.502,VALID,18.7333,VALID,143,VALID,1.57792,
2002-08-18, 07:42:00,VALID,918.102,VALID,0,VALID,99.0313,VALID,199.576,VALID,18.7658,VALID,150,VALID,1.05921,
2002-08-18, 07:43:00,VALID,918.107,VALID,0,VALID,99.0377,VALID,194.719,VALID,18.8135,VALID,144,VALID,1.51074,
2002-08-18, 07:44:00,VALID,918.112,VALID,0,VALID,98.9525,VALID,196.672,VALID,18.8235,VALID,136,VALID,1.2611,
2002-08-18, 07:45:00,VALID,918.118,VALID,0,VALID,98.9041,VALID,210.308,VALID,18.8362,VALID,145,VALID,1.38446,
2002-08-18, 07:46:00,VALID,918.1,VALID,0,VALID,98.9715,VALID,205.994,VALID,18.8622,VALID,135,VALID,0.946579,
2002-08-18, 07:47:00,VALID,918.102,VALID,0,VALID,99.0186,VALID,211.53,VALID,18.9201,VALID,130,VALID,0.830729,
2002-08-18, 07:48:00,VALID,918.127,VALID,0,VALID,99.0733,VALID,215.47,VALID,18.9879,VALID,92,VALID,0.280101,
2002-08-18, 07:49:00,VALID,918.166,VALID,0,VALID,99.1152,VALID,219.104,VALID,19.0781,VALID,150,VALID,0.739648,
2002-08-18, 07:50:00,VALID,918.194,VALID,0,VALID,98.9868,VALID,213.517,VALID,19.1176,VALID,139,VALID,0.976362,
2002-08-18, 07:51:00,VALID,918.208,VALID,0,VALID,98.8838,VALID,196.91,VALID,19.1199,VALID,151,VALID,0.627534,
2002-08-18, 07:52:00,VALID,918.211,VALID,0,VALID,98.8812,VALID,181.016,VALID,19.1646,VALID,129,VALID,0.675987,
2002-08-18, 07:53:00,VALID,918.199,VALID,0,VALID,98.7973,VALID,162.863,VALID,19.1971,VALID,120,VALID,0.493712,
2002-08-18, 07:54:00,VALID,918.215,VALID,0,VALID,98.6549,VALID,166.633,VALID,19.2033,VALID,125,VALID,0.72903,
2002-08-18, 07:55:00,VALID,918.207,VALID,0,VALID,98.5544,VALID,176.889,VALID,19.1999,VALID,141,VALID,0.701069,
2002-08-18, 07:56:00,VALID,918.211,VALID,0,VALID,98.6358,VALID,180.948,VALID,19.2396,VALID,132,VALID,0.43533,
2002-08-18, 07:57:00,VALID,918.226,VALID,0,VALID,98.7007,VALID,199.032,VALID,19.3002,VALID,120,VALID,0.195524,
2002-08-18, 07:58:00,VALID,918.226,VALID,0,VALID,98.8164,VALID,205.825,VALID,19.3969,VALID,116,VALID,0.0828125,
2002-08-18, 07:59:00,VALID,918.229,VALID,0,VALID,98.5773,VALID,201.189,VALID,19.4838,VALID,115,VALID,0.886513,
2002-08-18, 08:00:00,VALID,918.231,VALID,0,VALID,98.3523,VALID,208.881,VALID,19.4997,VALID,100,VALID,0.536529,
2002-08-18, 08:01:00,VALID,918.235,VALID,0,VALID,98.2416,VALID,223.655,VALID,19.5482,VALID,120,VALID,0.60597,
2002-08-18, 08:02:00,VALID,918.264,VALID,0,VALID,98.0344,VALID,216.76,VALID,19.5902,VALID,129,VALID,0.543919,
2002-08-18, 08:03:00,VALID,918.281,VALID,0,VALID,98.0255,VALID,201.562,VALID,19.6677,VALID,129,VALID,0.153516,
2002-08-18, 08:04:00,VALID,918.3,VALID,0,VALID,97.8195,VALID,188.182,VALID,19.7651,VALID,120,VALID,0.63528,
2002-08-18, 08:05:00,VALID,918.3,VALID,0,VALID,97.5524,VALID,185.736,VALID,19.7966,VALID,134,VALID,0.414931,
2002-08-18, 08:06:00,VALID,918.301,VALID,0,VALID,97.5728,VALID,206.962,VALID,19.8873,VALID,152,VALID,0.626519,
2002-08-18, 08:07:00,VALID,918.296,VALID,0,VALID,97.0145,VALID,246.596,VALID,19.9479,VALID,138,VALID,0.831209,
2002-08-18, 08:08:00,VALID,918.283,VALID,0,VALID,96.5161,VALID,238.666,VALID,19.9902,VALID,141,VALID,1.09809,
2002-08-18, 08:09:00,VALID,918.299,VALID,0,VALID,95.9502,VALID,195.432,VALID,20.026,VALID,144,VALID,1.09851,
2002-08-18, 08:10:00,VALID,918.292,VALID,0,VALID,95.7099,VALID,184.259,VALID,20.0287,VALID,152,VALID,0.812289,
2002-08-18, 08:11:00,VALID,918.304,VALID,0,VALID,95.7086,VALID,186.772,VALID,20.0734,VALID,152,VALID,0.990132,
2002-08-18, 08:12:00,VALID,918.311,VALID,0,VALID,95.0588,VALID,197.555,VALID,20.0903,VALID,161,VALID,0.729235,
2002-08-18, 08:13:00,VALID,918.327,VALID,0,VALID,94.966,VALID,212.923,VALID,20.1127,VALID,149,VALID,1.02285,
2002-08-18, 08:14:00,VALID,918.327,VALID,0,VALID,94.8096,VALID,232.977,VALID,20.1385,VALID,149,VALID,0.754729,
2002-08-18, 08:15:00,VALID,918.319,VALID,0,VALID,94.479,VALID,229.445,VALID,20.1676,VALID,135,VALID,0.936266,
2002-08-18, 08:16:00,VALID,918.301,VALID,0,VALID,93.9156,VALID,210.189,VALID,20.1609,VALID,143,VALID,1.072,
2002-08-18, 08:17:00,VALID,918.32,VALID,0,VALID,93.6155,VALID,211.462,VALID,20.0958,VALID,145,VALID,1.15278,
2002-08-18, 08:18:00,VALID,918.347,VALID,0,VALID,93.7376,VALID,211.989,VALID,20.0279,VALID,143,VALID,1.0903,
2002-08-18, 08:19:00,VALID,918.36,VALID,0,VALID,93.9144,VALID,212.566,VALID,19.9792,VALID,134,VALID,0.949805,
2002-08-18, 08:20:00,VALID,918.357,VALID,0,VALID,94.114,VALID,213.738,VALID,19.9569,VALID,134,VALID,0.824519,
2002-08-18, 08:21:00,VALID,918.365,VALID,0,VALID,94.5145,VALID,220.836,VALID,19.9762,VALID,128,VALID,0.580448,
2002-08-18, 08:22:00,VALID,918.362,VALID,0,VALID,94.5743,VALID,231.771,VALID,20.0279,VALID,135,VALID,0.447163,
2002-08-18, 08:23:00,VALID,918.374,VALID,0,VALID,94.4065,VALID,268.399,VALID,20.0918,VALID,118,VALID,0.318216,
2002-08-18, 08:24:00,VALID,918.377,VALID,0,VALID,94.2043,VALID,321.124,VALID,20.2021,VALID,108,VALID,0.407278,
2002-08-18, 08:25:00,VALID,918.377,VALID,0,VALID,93.8788,VALID,329.564,VALID,20.3146,VALID,67,VALID,0.231908,
2002-08-18, 08:26:00,VALID,918.378,VALID,0,VALID,93.6829,VALID,343.301,VALID,20.4841,VALID,30,VALID,0.511068,
2002-08-18, 08:27:00,VALID,918.395,VALID,0,VALID,93.0878,VALID,371.592,VALID,20.681,VALID,25,VALID,0.421664,
2002-08-18, 08:28:00,VALID,918.406,VALID,0,VALID,91.1639,VALID,397.98,VALID,20.8589,VALID,28,VALID,0.340848,
2002-08-18, 08:29:00,VALID,918.404,VALID,0,VALID,89.362,VALID,414.961,VALID,21.0555,VALID,27,VALID,0.128906,
2002-08-18, 08:30:00,VALID,918.417,VALID,0,VALID,87.4622,VALID,407.574,VALID,21.2946,VALID,27,VALID,0.0817145,
2002-08-18, 08:31:00,VALID,918.434,VALID,0,VALID,85.7621,VALID,388.267,VALID,21.5334,VALID,27,VALID,0.0799279,
2002-08-18, 08:32:00,VALID,918.428,VALID,0,VALID,84.4714,VALID,351.758,VALID,21.737,VALID,27,VALID,0.102618,
2002-08-18, 08:33:00,VALID,918.436,VALID,0,VALID,83.1807,VALID,325.675,VALID,21.8471,VALID,125,VALID,0.28457,
2002-08-18, 08:34:00,VALID,918.441,VALID,0,VALID,82.1863,VALID,309.289,VALID,21.9761,VALID,138,VALID,0.53824,
2002-08-18, 08:35:00,VALID,918.448,VALID,0,VALID,82.2245,VALID,303.244,VALID,22.0596,VALID,113,VALID,0.247179,
2002-08-18, 08:36:00,VALID,918.456,VALID,0,VALID,82.99,VALID,306.81,VALID,22.1337,VALID,80,VALID,0.238064,
2002-08-18, 08:37:00,VALID,918.458,VALID,0,VALID,83.4758,VALID,316.625,VALID,22.2115,VALID,74,VALID,0.0886102,
2002-08-18, 08:38:00,VALID,918.463,VALID,0,VALID,83.2952,VALID,305.57,VALID,22.3144,VALID,331,VALID,0.269531,
2002-08-18, 08:39:00,VALID,918.461,VALID,0,VALID,83.0218,VALID,321.192,VALID,22.2976,VALID,303,VALID,0.361662,
2002-08-18, 08:40:00,VALID,918.46,VALID,0,VALID,83.4465,VALID,316.76,VALID,22.2923,VALID,284,VALID,0.165963,
2002-08-18, 08:41:00,VALID,918.458,VALID,0,VALID,83.3931,VALID,299.117,VALID,22.3014,VALID,257,VALID,0.49301,
2002-08-18, 08:42:00,VALID,918.455,VALID,0,VALID,82.9747,VALID,312.379,VALID,22.2653,VALID,263,VALID,0.382196,
2002-08-18, 08:43:00,VALID,918.471,VALID,0,VALID,82.681,VALID,305.791,VALID,22.1616,VALID,255,VALID,0.476953,
2002-08-18, 08:44:00,VALID,918.477,VALID,0,VALID,82.1202,VALID,298.608,VALID,22.0353,VALID,246,VALID,0.465255,
2002-08-18, 08:45:00,VALID,918.482,VALID,0,VALID,83.2558,VALID,299.372,VALID,21.9615,VALID,241,VALID,0.379934,
2002-08-18, 08:46:00,VALID,918.5,VALID,0,VALID,83.8534,VALID,302.157,VALID,21.9742,VALID,251,VALID,0.458826,
2002-08-18, 08:47:00,VALID,918.512,VALID,0,VALID,83.9424,VALID,307.591,VALID,21.9578,VALID,255,VALID,0.531684,
2002-08-18, 08:48:00,VALID,918.525,VALID,0,VALID,84.0111,VALID,307.879,VALID,21.9017,VALID,253,VALID,0.415441,
2002-08-18, 08:49:00,VALID,918.52,VALID,0,VALID,84.5948,VALID,344.218,VALID,21.902,VALID,253,VALID,0.356445,
2002-08-18, 08:50:00,VALID,918.526,VALID,0,VALID,84.2654,VALID,373.103,VALID,21.954,VALID,290,VALID,0.31871,
2002-08-18, 08:51:00,VALID,918.526,VALID,0,VALID,82.7103,VALID,405.74,VALID,22.028,VALID,319,VALID,0.483742,
2002-08-18, 08:52:00,VALID,918.514,VALID,0,VALID,83.4427,VALID,380.846,VALID,21.962,VALID,305,VALID,0.54523,
2002-08-18, 08:53:00,VALID,918.527,VALID,0,VALID,83.8878,VALID,360.401,VALID,21.9572,VALID,273,VALID,0.544779,
2002-08-18, 08:54:00,VALID,918.544,VALID,0,VALID,83.6042,VALID,354.933,VALID,21.9766,VALID,283,VALID,0.529194,
2002-08-18, 08:55:00,VALID,918.563,VALID,0,VALID,84.1548,VALID,342.367,VALID,22.0409,VALID,294,VALID,0.366571,
2002-08-18, 08:56:00,VALID,918.565,VALID,0,VALID,84.2603,VALID,336.305,VALID,22.1279,VALID,261,VALID,0.400825,
2002-08-18, 08:57:00,VALID,918.577,VALID,0,VALID,83.3613,VALID,327.238,VALID,22.1861,VALID,282,VALID,0.287373,
2002-08-18, 08:58:00,VALID,918.576,VALID,0,VALID,82.5513,VALID,313.143,VALID,22.2792,VALID,313,VALID,0.304688,
2002-08-18, 08:59:00,VALID,918.581,VALID,0,VALID,81.1144,VALID,311.293,VALID,22.3186,VALID,245,VALID,0.444079,
2002-08-18, 09:00:00,VALID,918.59,VALID,0,VALID,81.6256,VALID,315.011,VALID,22.2693,VALID,282,VALID,0.444257,
2002-08-18, 09:01:00,VALID,918.59,VALID,0,VALID,81.5696,VALID,315.725,VALID,22.3013,VALID,223,VALID,0.290064,
2002-08-18, 09:02:00,VALID,918.592,VALID,0,VALID,80.3858,VALID,319.885,VALID,22.3328,VALID,226,VALID,0.232897,
2002-08-18, 09:03:00,VALID,918.599,VALID,0,VALID,79.0824,VALID,336.441,VALID,22.3918,VALID,260,VALID,0.440625,
2002-08-18, 09:04:00,VALID,918.59,VALID,0,VALID,79.0798,VALID,360.18,VALID,22.4203,VALID,247,VALID,0.278372,
2002-08-18, 09:05:00,VALID,918.585,VALID,0,VALID,78.8891,VALID,400.612,VALID,22.4717,VALID,242,VALID,0.316623,
2002-08-18, 09:06:00,VALID,918.583,VALID,0,VALID,78.6945,VALID,425.03,VALID,22.5081,VALID,253,VALID,0.404514,
2002-08-18, 09:07:00,VALID,918.594,VALID,0,VALID,78.9616,VALID,435.847,VALID,22.5361,VALID,255,VALID,0.295847,
2002-08-18, 09:08:00,VALID,918.616,VALID,0,VALID,78.4453,VALID,427.9,VALID,22.643,VALID,249,VALID,0.356771,
2002-08-18, 09:09:00,VALID,918.652,VALID,0,VALID,78.1465,VALID,420.513,VALID,22.7858,VALID,274,VALID,0.243712,
2002-08-18, 09:10:00,VALID,918.649,VALID,0,VALID,77.6658,VALID,404.84,VALID,22.9453,VALID,277,VALID,0.138725,
2002-08-18, 09:11:00,VALID,918.663,VALID,0,VALID,77.4751,VALID,402.683,VALID,23.0717,VALID,273,VALID,0.198396,
2002-08-18, 09:12:00,VALID,918.661,VALID,0,VALID,77.208,VALID,414.757,VALID,23.1786,VALID,275,VALID,0.25884,
2002-08-18, 09:13:00,VALID,918.648,VALID,0,VALID,75.7724,VALID,423.808,VALID,23.2494,VALID,238,VALID,0.661659,
2002-08-18, 09:14:00,VALID,918.665,VALID,0,VALID,76.4374,VALID,439.464,VALID,23.1751,VALID,245,VALID,0.646793,
2002-08-18, 09:15:00,VALID,918.653,VALID,0,VALID,78.3842,VALID,457.158,VALID,23.1034,VALID,276,VALID,0.512952,
2002-08-18, 09:16:00,VALID,918.676,VALID,0,VALID,78.4122,VALID,477.942,VALID,23.1839,VALID,250,VALID,0.265414,
2002-08-18, 09:17:00,VALID,918.699,VALID,0,VALID,76.8392,VALID,484.973,VALID,23.3467,VALID,245,VALID,0.435547,
2002-08-18, 09:18:00,VALID,918.707,VALID,0,VALID,76.6409,VALID,470.556,VALID,23.4037,VALID,235,VALID,0.477482,
2002-08-18, 09:19:00,VALID,918.715,VALID,0,VALID,77.1279,VALID,456.699,VALID,23.4425,VALID,279,VALID,0.413477,
2002-08-18, 09:20:00,VALID,918.716,VALID,0,VALID,76.295,VALID,474.003,VALID,23.4557,VALID,351,VALID,0.398037,
2002-08-18, 09:21:00,VALID,918.714,VALID,0,VALID,76.0699,VALID,491.459,VALID,23.5976,VALID,39,VALID,0.486275,
2002-08-18, 09:22:00,VALID,918.707,VALID,0,VALID,75.9301,VALID,481.254,VALID,23.6264,VALID,327,VALID,0.2206,
2002-08-18, 09:23:00,VALID,918.699,VALID,0,VALID,74.1562,VALID,455.171,VALID,23.778,VALID,282,VALID,0.63186,
2002-08-18, 09:24:00,VALID,918.714,VALID,0,VALID,73.8166,VALID,452.064,VALID,23.7425,VALID,259,VALID,0.31764,
2002-08-18, 09:25:00,VALID,918.719,VALID,0,VALID,73.8484,VALID,459.586,VALID,23.739,VALID,297,VALID,0.396382,